Regional Weather Roundup
Issued by NWS

Home | Current Version | Previous Version | Graphics & Text | Print | Product List | Glossary On
Versions: 1 2 3 4 5 6 7 8 9 10 11 12 13 14 15 16 17 18 19 20 21 22 23 24 25 26 27 28 29 30 31 32 33 34 35 36 37 38 39 40 41 42 43 44 45 46 47 48 49 50
000
ASUS44 KMEG 281200
RWRTN
TENNESSEE HOURLY STATE WEATHER ROUNDUP
NATIONAL WEATHER SERVICE MEMPHIS TN
700 AM CDT THU MAY 28 2015

TNZ002-004-019-021-049-052-054-088>092-281300-
WEST TENNESSEE

CITY           SKY/WX    TMP DP  RH WIND       PRES   REMARKS
MEMPHIS INTL   CLOUDY    71  66  84 S3        30.16R
NWS MEMPHIS      N/A     69 N/A N/A MISG        N/A
JACKSON        NOT AVBL
DYERSBURG      CLOUDY    66  54  63 SE3       30.17R
PARIS          CLOUDY    59  59 100 CALM      30.19R VSB 0
LEXINGTON      CLOUDY    63  63 100 CALM      30.18R VSB 1/4
$$

TNZ008-025-027-028-033-062-065-066-281300-
NORTH MIDDLE TENNESSEE

CITY           SKY/WX    TMP DP  RH WIND       PRES   REMARKS
NASHVILLE      NOT AVBL
CLARKSVILLE    FOG       63  63 100 S3        30.19R VSB<1/4
COOKEVILLE     CLOUDY    64  64 100 E5        30.22F
CROSSVILLE     CLOUDY    66  61  84 CALM      30.27R
$$

TNZ061-075-076-078-094-096-097-281300-
SOUTH MIDDLE TENNESSEE

CITY           SKY/WX    TMP DP  RH WIND       PRES   REMARKS
FAYETTEVILLE   MOSUNNY  N/A N/A N/A MISG      30.21S
TULLAHOMA      SUNNY     64  63  94 CALM      30.22S
WINCHESTER     PTSUNNY   64  64 100 E3        30.22R
COLUMBIA       MOSUNNY   66  66 100 CALM      30.19R
SHELBYVILLE    CLOUDY    66  66 100 CALM      30.22R
$$

TNZ017-018-042-046-047-281300-
NORTHEAST TENNESSEE

CITY           SKY/WX    TMP DP  RH WIND       PRES   REMARKS
TRI CITIES     MOSUNNY   68  63  84 CALM      30.26S
ELIZABETHTON   SUNNY     64  61  88 CALM      30.27S
$$

TNZ012-013-036-069-073-074-281300-
CENTRAL EAST TENNESSEE

CITY           SKY/WX    TMP DP  RH WIND       PRES   REMARKS
KNOXVILLE      CLOUDY    69  62  78 CALM      30.23R
OAK RIDGE      CLOUDY    69  66  90 CALM      30.25R
GATLINBURG       N/A     66  61  82 CALM      30.24R
$$

TNZ083-085-099-281300-
SOUTHEAST TENNESSEE

CITY           SKY/WX    TMP DP  RH WIND       PRES   REMARKS
CHATTANOOGA    CLOUDY    68  66  93 NW3       30.22R
$$

SKY/WX REPORTED AS FAIR MEANS FEW OR NO CLOUDS BELOW
12 THOUSAND FEET.



USA.gov is the U.S. government's official web portal to all federal, state and local government web resources and services.